Regional Weather Roundup
Issued by NWS Portland, ME

Current Version | Previous Version | Text Only | Print | Product List | Glossary On
Versions: 1 2 3 4 5 6 7 8 9 10 11 12 13 14 15 16 17 18 19 20 21 22 23 24 25 26 27 28 29 30 31 32 33 34 35 36 37 38 39 40 41 42 43 44 45 46 47 48 49 50
000
ASUS41 KGYX 030510
RWRGYX
WEATHER ROUNDUP FOR MAINE AND NEW HAMPSHIRE
NATIONAL WEATHER SERVICE GRAY ME
1200 AM EST WED MAR 03 2021

MEZ002-005-006-010-012-015-018-020-021-024-026-027-029-030600-
MAINE

CITY           SKY/WX    TMP DP  RH WIND       PRES   REMARKS
PORTLAND       CLEAR     16  -2  45 SW3       29.87S
SANFORD        CLEAR     19  -2  39 NW8       29.88S
BAR HARBOR     CLEAR     15  -2  46 W13G26    29.72R WCI   1
WISCASSET      CLEAR     17  -5  37 CALM      29.85R
ROCKLAND       CLEAR     17  -2  43 MISG      29.78S
FRYEBURG       CLEAR     20  -6  31 NW13G24   29.80F WCI   7
LEWISTONAUBURN CLEAR     17  -6  35 NW7       29.84S
AUGUSTA        CLEAR     14  -7  38 W10G21    29.80S WCI   1
WATERVILLE     CLEAR     15  -4  42 W12       29.76R WCI   2
BANGOR         CLEAR     15  -7  37 W6        29.72S
GREENVILLE       N/A      9  -9  44 NW26G36   29.62F WCI -13
MILLINOCKET      N/A     11  -4  51 W25G41    29.61F WCI -10
HOULTON        CLEAR     11  -3  53 NW14G26   29.55R WCI  -5
PRESQUE ISLE   CLEAR      8  -2  63 W16G22    29.57S WCI -10
FRENCHVILLE    LGT SNOW   5  -4  66 W30G40    29.49R WCI -19
CARIBOU        CLEAR      8  -4  58 W16G24    29.54R WCI -10
$$

NHZ002-005-008-009-011-012-014-030600-
NEW HAMPSHIRE

CITY           SKY/WX    TMP DP  RH WIND       PRES   REMARKS
PORTSMOUTH     CLEAR     21  -8  27 NW10      29.88F WCI  10
ROCHESTER      CLEAR     20  -4  34 W12G18    29.86F WCI   8
NASHUA         CLEAR     20   3  48 CALM      29.92F
MANCHESTER     CLEAR     23  -1  35 W12       29.89F WCI  12
CONCORD        CLEAR     20  -2  38 NW10      29.90F WCI   9
LACONIA        CLEAR     16  -2  45 W6        29.88F
PLYMOUTH       FAIR      16  -5  39 SW3       29.91S
BERLIN         CLEAR     12  -7  42 N6        29.83F
WHITEFIELD     CLOUDY     7  -7  52 SW3       29.89F
JAFFREY        CLEAR     19   1  45 VRB3      29.87F
KEENE          CLEAR     15   7  70 CALM      29.94F
LEBANON        PTCLDY    12  -1  56 CALM      29.93F
MT WASHINGTON  BLWGSNOW  -9  -9 100 W72G78      N/A  VSB 1/16WCI -49
$$

VTZ005-007-008-030600-
VERMONT

CITY           SKY/WX    TMP DP  RH WIND       PRES   REMARKS
ST JOHNSBURY     N/A      5  -4  66 MISG      29.90F
MONTPELIER     LGT SNOW  10   2  69 CALM      29.92F
BURLINGTON     LGT SNOW  18   7  62 S8        29.95F
$$

MAZ007-012-024-CTZ003-RIZ002-NYZ038-NYZ072-030600-
SOUTHERN NEW ENGLAND AND NY

CITY           SKY/WX    TMP DP  RH WIND       PRES   REMARKS
BOSTON         CLEAR     23   1  38 W9G20     29.95F
WORCESTER      CLEAR     20   1  43 W12G18    29.89S WCI   8
NANTUCKET        N/A    N/A N/A N/A MISG      29.98S
PROVIDENCE     CLEAR     25   1  35 W12       29.99S WCI  14
HARTFORD       PTCLDY    22   2  42 S6        30.00S
ALBANY         CLOUDY    20   9  62 NE3       30.01F
NEW YORK CITY  PTCLDY    33  10  38 SW12      30.05F
$$

ANZ081-ANZ082-ANZ150-NHZ014-MEZ023>029-030600-
COASTAL MARINE OBSERVATIONS

STATION/POSITION TIME  TEMP    WIND        PRES    WAVE
                       AIR SEA DIR/SP/G            HT/PER
                 (UTC) (F)     (DEG/KT/KT) (MB)    (FT/S)
$$

.............KEY..............
   WCI - WIND CHILL
   TC  - TEMPERATURE IN CELSIUS
   VSB - VISIBILITY IN MILES
   HX  - HEAT INDEX
   FAIR- INDICATES FEW OR NO CLOUDS BELOW 12,000 FT, WITH NO
         SIGNIFICANT WEATHER AND/OR OBSTRUCTIONS TO VISIBILITY.





USA.gov is the U.S. government's official web portal to all federal, state and local government web resources and services.